Manhattan, KS

4:35 AM CST on December 06, 2019 (GMT -0600)
Manhattan Regional

Weather History for KMHK - October, 2019

Change the Weather History Date:

Wednesday, October 16, 2019

  Actual Average Record
Temperature  
Mean Temperature 49 °F 55 °F  
Max Temperature 60 °F 68 °F 88 °F (2016)
Min Temperature 37 °F 42 °F 24 °F (2018)
Degree Days  
Heating Degree Days 16 10  
Month to date heating degree days 150 131  
Since 1 July heating degree days 151 201  
Cooling Degree Days 0 0  
Month to date cooling degree days 13 21  
Year to date cooling degree days 1608 1358  
Moisture  
Dew Point 36 °F    
Average Humidity 66    
Maximum Humidity 92    
Minimum Humidity 40    
Precipitation  
Precipitation 0.00 in 0.08 in 0.28 in (1998)
Month to date precipitation 2.60 1.26  
Year to date precipitation 40.58 28.97  
Sea Level Pressure  
Sea Level Pressure 30.19 in    
Wind  
Wind Speed 3 mph (WNW)    
Max Wind Speed 10 mph    
Max Gust Speed 15 mph    
Visibility 10 miles    
Events      
T = Trace of Precipitation, MM = Missing Value Source: NWS Daily Summary

Daily Weather History Graph

Daily Weather History Graph

Search for Another Location

Airport or City:

Astronomy

Oct. 16, 2019 Rise Set
Actual Time 7:37 AM CDT 6:46 PM CDT
Civil Twilight 7:10 AM CDT 7:13 PM CDT
Nautical Twilight 6:39 AM CDT 7:44 PM CDT
Astronomical Twilight 6:08 AM CDT 8:15 PM CDT
Moon 8:41 PM CDT (10/16) 10:08 AM CDT (10/16)
Length of Visible Light 12h 03m
Length of Day
11h 09m
Waning Gibbous, 92% of the Moon is Illuminated
Oct 16
Waning Gibbous
Oct 21
Last Quarter
Oct 27
New
Nov 4
First Quarter
Nov 12
Full

Hourly Weather History & Observations

Time (CDT) Temp. Windchill Dew Point Humidity Pressure Visibility Wind Dir Wind Speed Gust Speed Precip Events Conditions
12:52 AM 41.0 °F - 33.1 °F 73% 30.23 in 10.0 mi Calm Calm - N/A   Clear
1:52 AM 39.9 °F 35.8 °F 33.1 °F 77% 30.23 in 10.0 mi West 5.8 mph - N/A   Clear
2:52 AM 37.9 °F 35.5 °F 32.0 °F 79% 30.23 in 10.0 mi West 3.5 mph - N/A   Clear
3:52 AM 37.9 °F - 32.0 °F 79% 30.24 in 10.0 mi Calm Calm - N/A   Clear
4:52 AM 37.9 °F 35.5 °F 33.1 °F 83% 30.25 in 10.0 mi Variable 3.5 mph - N/A   Clear
5:33 AM 37.9 °F 35.5 °F 33.1 °F 83% 30.24 in 10.0 mi NNW 3.5 mph - N/A   Overcast
5:52 AM 39.0 °F 36.8 °F 34.0 °F 82% 30.24 in 10.0 mi Variable 3.5 mph - N/A   Overcast
6:52 AM 39.9 °F 36.7 °F 35.1 °F 83% 30.25 in 10.0 mi West 4.6 mph - N/A   Overcast
7:52 AM 39.9 °F 37.8 °F 35.1 °F 83% 30.25 in 10.0 mi Variable 3.5 mph - N/A   Overcast
8:16 AM 39.9 °F 37.8 °F 35.1 °F 83% 30.23 in 10.0 mi NW 3.5 mph - N/A   Scattered Clouds
8:52 AM 43.0 °F 40.3 °F 36.0 °F 76% 30.25 in 10.0 mi NNW 4.6 mph - N/A   Clear
9:52 AM 46.9 °F - 37.0 °F 68% 30.27 in 10.0 mi Variable 4.6 mph - N/A   Clear
10:52 AM 48.0 °F - 36.0 °F 63% 30.26 in 10.0 mi Variable 4.6 mph - N/A   Mostly Cloudy
11:17 AM 51.1 °F - 36.0 °F 56% 30.25 in 10.0 mi NW 5.8 mph - N/A   Scattered Clouds
11:52 AM 52.0 °F - 36.0 °F 54% 30.26 in 10.0 mi Variable 4.6 mph - N/A   Clear
12:52 PM 55.0 °F - 37.0 °F 51% 30.24 in 10.0 mi NNW 5.8 mph - N/A   Clear
1:52 PM 57.0 °F - 36.0 °F 45% 30.20 in 10.0 mi Variable 4.6 mph - N/A   Clear
2:52 PM 59.0 °F - 36.0 °F 42% 30.17 in 10.0 mi West 3.5 mph - N/A   Clear
3:52 PM 60.1 °F - 37.0 °F 42% 30.14 in 10.0 mi SSE 5.8 mph - N/A   Clear
4:52 PM 60.1 °F - 37.0 °F 42% 30.12 in 10.0 mi South 4.6 mph - N/A   Clear
5:52 PM 59.0 °F - 36.0 °F 42% 30.10 in 10.0 mi Calm Calm - N/A   Clear
6:52 PM 50.0 °F - 39.0 °F 66% 30.10 in 10.0 mi Calm Calm - N/A   Clear
7:52 PM 44.1 °F - 39.0 °F 82% 30.11 in 10.0 mi Calm Calm - N/A   Clear
8:52 PM 43.0 °F - 39.0 °F 86% 30.10 in 10.0 mi Calm Calm - N/A   Clear
9:52 PM 44.1 °F - 39.9 °F 85% 30.08 in 10.0 mi Calm Calm - N/A   Clear
10:52 PM 43.0 °F - 39.0 °F 86% 30.07 in 10.0 mi Calm Calm - N/A   Clear
11:52 PM 39.9 °F - 37.9 °F 93% 30.06 in 10.0 mi Calm Calm - N/A   Clear